Location: Araquey
(29.9464°N, 81.3373°W)
Time: 12:14:52
(UTC+00:00)

Envisat - Visible Passes

Search period start: 24 September 2021 00:00
Search period end: 04 October 2021 00:00
Orbit: 764 x 766 km, 98.2° (Epoch: 23 September)

Date Brightness Start Highest point End Pass type
(mag) Time Alt. Az. Time Alt. Az. Time Alt. Az.
24 Sep 5.2 09:42:10 10° NE 09:46:22 26° E 09:50:32 10° SSE visible
25 Sep 3.0 10:43:34 10° N 10:48:36 66° WNW 10:53:36 10° SSW visible
26 Sep 4.0 10:06:52 10° NNE 10:11:47 49° E 10:16:40 10° S visible
27 Sep 5.6 09:31:10 10° NE 09:34:48 20° E 09:38:25 10° SE visible
28 Sep 3.0 10:32:01 10° N 10:37:07 87° W 10:42:11 10° SSW visible
29 Sep 4.6 09:55:34 10° NNE 10:00:15 37° E 10:04:54 10° SSE visible
30 Sep 6.0 09:20:25 10° ENE 09:23:13 15° E 09:26:00 10° SE visible
01 Oct 3.3 10:20:32 10° NNE 10:25:37 72° ESE 10:30:40 10° S visible
02 Oct 5.1 09:44:21 10° NE 09:48:42 28° E 09:53:01 10° SSE visible
03 Oct 6.2 09:10:25 10° E 09:11:36 11° E 09:12:48 10° ESE visible
03 Oct 3.0 10:45:54 10° N 10:50:54 61° WNW 10:55:53 10° SSW visible
